Regional Weather Roundup
Issued by NWS

Home | Current Version | Previous Version | Text Only | Print | Product List | Glossary Off
Versions: 1 2 3 4 5 6 7 8 9 10 11 12 13 14 15 16 17 18 19 20 21 22 23 24 25 26 27 28 29 30 31 32 33 34 35 36 37 38 39 40 41 42 43 44 45 46 47 48 49 50

000
ASUS43 KFSD 160302
RWRSD

WEATHER ROUNDUP FOR SOUTH DAKOTA
NATIONAL WEATHER SERVICE SIOUX FALLS SD
900 PM CST FRI DEC 15 2017

NOTE: "FAIR" INDICATES FEW OR NO CLOUDS BELOW 12,000 FEET WITH NO
SIGNIFICANT WEATHER AND/OR OBSTRUCTIONS TO VISIBILITY.


SDZ001>005-009-010-012>017-160400-
NORTHWEST AND NORTH CENTRAL SOUTH DAKOTA

CITY           SKY/WX    TMP DP  RH WIND       PRES   REMARKS
BUFFALO          N/A     39  21  48 NW9       29.57S
FAITH            N/A     38  21  50 W12       29.63R
MOBRIDGE       CLOUDY    36  24  62 NW8       29.56R
$$

SDZ012>016-024>037-041>051-057-063-072>074-160400-
SOUTHWEST AND SOUTH CENTRAL SOUTH DAKOTA

CITY           SKY/WX    TMP DP  RH WIND       PRES   REMARKS
RAPID CTY ARPT CLOUDY    40  15  36 NE3       29.67S
PIERRE         CLOUDY    41  24  51 W12       29.61R
CUSTER         CLOUDY    36  14  40 SW5       29.71S
ELLSWORTH AFB  CLOUDY    43  16  33 CALM      29.66S
PHILIP         PTCLDY    38  24  57 W8        29.65S
PINE RIDGE     PTCLDY    42  21  43 W7        29.72S
SPEARFISH      FAIR      48  14  25 W10       29.68F
WINNER         FAIR      46  26  45 SW9       29.65F
$$

SDZ004>011-016>023-039-040-160400-
NORTHEAST SOUTH DAKOTA

CITY           SKY/WX    TMP DP  RH WIND       PRES   REMARKS
ABERDEEN       CLOUDY    32  25  75 S7        29.56F WCI  26
WATERTOWN      CLOUDY    32  28  85 S8        29.58F WCI  25
BROOKINGS      CLOUDY    34  26  72 SW7       29.61S WCI  28
SISSETON         N/A     34  31  88 S7        29.56F WCI  28
$$

SDZ017-020-022-023-036>040-048>070-160400-
SOUTHEAST SOUTH DAKOTA

CITY           SKY/WX    TMP DP  RH WIND       PRES   REMARKS
SIOUX FALLS    CLOUDY    39  28  64 SW6       29.63F
HURON          CLOUDY    35  28  75 S6        29.59F
CHAMBERLAIN    MOCLDY    42  30  62 CALM      29.62F
MITCHELL       CLOUDY    43  30  60 SW9       29.63S
YANKTON        CLOUDY    44  27  51 SW12      29.65F
$$

ABBREVIATIONS USED IN REMARKS
   TC - TEMPERATURE IN CELSIUS
  WCI - WIND CHILL INDEX
   HX - HEAT INDEX
  VSB - VISIBILITY





USA.gov is the U.S. government's official web portal to all federal, state and local government web resources and services.